[[{"header":{"parameterUnit":"m.s-1","parameterCategory":2,"la1":30.2991,"la2":30.254,"lo1":-89.0895,"lo2":-89.0444,"dy":0.0017,"dx":0.0017,"nx":28,"ny":28,"refTime":"2024-04-10T09:00:00:Z","depth":"0","parameterNumber":2,"parameterNumberName":"U-component_of_CURRENTS"},"data":[0,0,0,0,0,0,0,0,0,0,0,0,0,0,0,0,0,0,0,0,0,0,0,0,0,0,0,0,0,0,0,0,0,0,0,0,0,0,0,0,0,0,0,0,0,0,0,0,0,0,0,0,0,0,0,0,0,0,-0.3383,-0.3385,0,-0.3461,-0.3461,-0.3461,-0.3428,-0.3427,-0.3425,-0.3424,-0.3298,-0.3296,-0.3294,0,0,0,0,0,0,0,0,0,0,0,0,0,-0.3161,-0.3165,-0.3383,-0.3385,-0.3386,-0.3461,-0.3461,-0.3462,-0.3428,-0.3427,-0.3425,-0.3424,-0.3299,-0.3297,-0.3294,0,0,0,0,0,0,0,0,0,0,0,0,0,-0.3244,-0.3166,-0.3383,-0.3384,-0.3385,-0.3461,-0.3461,-0.3462,-0.3429,-0.3427,-0.3425,-0.3423,-0.33,-0.3297,-0.3294,-0.3312,0,0,-0.3284,-0.3282,0,0,0,0,0,0,0,0,-0.3239,-0.3251,-0.3382,-0.3384,-0.3386,-0.3439,-0.3337,-0.3404,-0.3429,-0.3405,-0.3424,-0.3422,-0.3332,-0.3326,-0.3338,-0.3306,-0.33,-0.3283,-0.3281,-0.328,-0.3279,0,0,0,0,0,0,0,-0.3233,-0.3247,-0.3407,-0.3384,-0.3386,-0.3365,-0.3374,-0.335,-0.3369,-0.3407,-0.3406,-0.3426,-0.333,-0.3342,-0.3335,-0.3298,-0.3283,-0.3281,-0.3279,-0.3277,-0.3279,-0.3281,0,0,0,0,0,0,-0.3243,-0.3243,-0.3405,-0.341,-0.3314,-0.3371,-0.3381,-0.3418,-0.3374,-0.3369,-0.3428,-0.3425,-0.3348,-0.3339,-0.333,-0.3338,-0.328,-0.3277,-0.3275,-0.3277,-0.328,-0.3282,0,0,0,0,0,0,-0.3238,-0.3257,-0.3402,-0.3332,-0.3349,-0.3378,-0.3419,-0.3421,-0.3426,-0.3394,-0.3383,-0.3431,-0.3346,-0.3334,-0.3323,-0.3333,-0.3275,-0.3273,-0.3275,-0.3278,-0.3281,-0.336,0,0,0,0,0,0,-0.3232,-0.3255,-0.3276,-0.3334,-0.3354,-0.3451,-0.3422,-0.3424,-0.3445,-0.3441,-0.3393,-0.338,-0.3344,-0.3328,-0.3319,-0.3327,-0.327,-0.3272,-0.3276,-0.328,-0.3355,-0.3365,-0.3374,0,0,0,0,0,-0.3224,-0.3264,-0.3277,-0.3296,-0.3386,-0.3453,-0.3461,-0.3468,-0.3447,-0.3461,-0.3436,-0.3381,-0.3345,-0.3328,-0.3317,-0.3323,-0.327,-0.3275,-0.3279,-0.335,-0.3363,-0.3374,0,0,0,0,0,0,-0.3167,-0.3268,-0.3282,-0.3348,-0.3399,-0.3449,-0.3469,-0.3474,-0.3469,-0.3456,-0.3407,-0.3394,-0.3389,-0.3356,-0.3337,-0.334,-0.3299,-0.3301,-0.3357,-0.3368,-0.3378,-0.3386,-0.3267,0,0,0,0,0,-0.3173,-0.3232,-0.3311,-0.336,-0.3391,-0.3429,-0.3453,-0.3466,-0.3479,-0.3476,-0.3448,-0.3419,-0.3405,-0.3384,-0.3368,-0.3366,-0.3343,-0.3367,-0.3376,-0.3385,-0.3388,-0.3374,-0.3382,-0.3296,-0.3296,-0.3296,0,0,-0.3162,-0.3226,-0.3257,-0.3352,-0.3389,-0.345,-0.3436,-0.3486,-0.352,-0.346,-0.3477,-0.3451,-0.3415,-0.342,-0.3413,-0.3387,-0.3403,-0.339,-0.3397,-0.3396,-0.3379,-0.3387,-0.3394,-0.3299,-0.3299,-0.3298,0,0,-0.3189,-0.3233,-0.3299,-0.3351,-0.3429,-0.3459,-0.3476,-0.3533,-0.3538,-0.3565,-0.3533,-0.3521,-0.3495,-0.348,-0.3465,-0.352,-0.346,-0.351,-0.3553,-0.354,-0.3546,-0.3551,-0.3554,-0.3559,-0.3508,-0.3508,-0.3508,0,-0.3166,-0.3269,-0.3321,-0.3397,-0.3438,-0.3466,-0.3531,-0.3555,-0.3594,-0.3601,-0.3575,-0.3563,-0.3526,-0.3533,-0.3554,-0.3538,-0.3526,-0.3507,-0.3551,-0.3555,-0.3559,-0.356,-0.3565,-0.3512,-0.3512,-0.3511,-0.3511,0,-0.3254,-0.3325,-0.3364,-0.3472,-0.3518,-0.3576,-0.3631,-0.3658,-0.3657,-0.3674,-0.3683,-0.3651,-0.3635,-0.3629,-0.3602,-0.3618,-0.3602,-0.3568,-0.3516,-0.3572,-0.3571,-0.3574,-0.3518,-0.3517,-0.3516,-0.3514,0,0,-0.3228,-0.3394,-0.3407,-0.3461,-0.3561,-0.3607,-0.3667,-0.3728,-0.3756,-0.3764,-0.379,-0.3769,-0.3741,-0.3725,-0.3691,-0.368,-0.3701,-0.3638,-0.3636,-0.3634,-0.3685,-0.3679,-0.368,-0.3668,-0.3669,-0.3669,-0.3681,0,-0.3274,-0.3418,-0.349,-0.3592,-0.3661,-0.3705,-0.376,-0.3807,-0.3824,-0.3854,-0.3823,-0.3828,-0.3781,-0.3768,-0.3754,-0.3715,-0.3708,-0.3702,-0.3638,-0.3637,-0.3616,-0.3683,-0.3614,-0.3618,-0.3683,-0.3683,-0.3684,0,-0.3335,-0.3424,-0.3541,-0.3659,-0.3691,-0.374,-0.3813,-0.3866,-0.3912,-0.3926,-0.3925,-0.3905,-0.3898,-0.3842,-0.3804,-0.3801,-0.3753,-0.3719,-0.3717,-0.3681,-0.3635,-0.3569,-0.362,-0.362,-0.3687,-0.3687,-0.3687,0,-0.3292,-0.345,-0.3535,-0.3579,-0.3717,-0.3749,-0.38,-0.3866,-0.391,-0.3953,-0.398,-0.3972,-0.3956,-0.3909,-0.3844,-0.3821,-0.3804,-0.3756,-0.371,-0.3709,-0.3623,-0.3614,-0.3654,-0.3728,-0.3728,-0.3728,-0.3728,0,-0.3316,-0.338,-0.3514,-0.3559,-0.3626,-0.3724,-0.3784,-0.3837,-0.3918,-0.3968,-0.3991,-0.4016,-0.3967,-0.3951,-0.3884,-0.3822,-0.3831,-0.3737,-0.3715,-0.3653,-0.3647,-0.3618,-0.3614,-0.3728,-0.3728,-0.3728,-0.3728,0,-0.3261,-0.3365,-0.3445,-0.3575,-0.3607,-0.3636,-0.3756,-0.3812,-0.3896,-0.396,-0.3975,-0.4042,-0.4026,-0.399,-0.3924,-0.3868,-0.3768,-0.3778,-0.3725,-0.3697,-0.3648,-0.365,-0.3625,-0.3525,-0.3735,-0.3735,-0.3735,0,-0.3259,-0.3299,-0.3408,-0.3441,-0.3491,-0.3563,-0.3625,-0.3755,-0.3819,-0.3964,-0.3988,-0.4028,-0.4037,-0.3984,-0.39,-0.382,-0.3755,-0.3711,-0.3649,-0.3661,-0.3646,-0.3622,-0.3536,-0.3572,-0.3571,-0.357,-0.3569,0,-0.3217,-0.3238,-0.3301,-0.3342,-0.3399,-0.3468,-0.3559,-0.3618,-0.3779,-0.387,-0.3968,-0.3997,-0.3997,-0.3927,-0.3853,-0.3755,-0.3659,-0.3685,-0.3697,-0.3536,-0.351,-0.3397,-0.357,-0.3559,-0.356,-0.3561,-0.3561,-0.3562,-0.3158,-0.3155,-0.3202,-0.3228,-0.3286,-0.3317,-0.3312,-0.3462,-0.3549,-0.3637,-0.3819,-0.3853,-0.3928,-0.3819,-0.3751,-0.3631,-0.3579,-0.3531,-0.3538,-0.3518,-0.3408,-0.3583,-0.3548,-0.3549,-0.3549,-0.355,-0.3551,0,-0.3097,-0.3083,-0.3091,-0.3099,-0.3079,-0.3146,-0.3227,-0.3193,-0.3243,-0.3425,-0.3511,-0.3705,-0.3688,-0.3717,-0.3684,-0.3552,-0.3409,-0.3442,-0.3383,-0.3298,-0.3455,-0.3435,-0.3375,-0.3375,-0.3375,-0.3375,-0.3375,-0.3375,-0.3066,-0.3025,-0.2996,-0.2874,-0.2865,-0.2751,-0.2744,-0.2735,-0.2801,-0.2892,-0.3077,-0.3229,-0.3398,-0.3809,-0.3723,-0.3547,-0.3402,-0.3319,-0.3278,-0.3416,-0.3424,-0.3432,-0.3414,-0.3352,-0.3352,-0.3041,-0.3039,-0.3038]},{"header":{"parameterUnit":"m.s-1","parameterCategory":2,"la1":30.2991,"la2":30.254,"lo1":-89.0895,"lo2":-89.0444,"dy":0.0017,"dx":0.0017,"nx":28,"ny":28,"refTime":"2024-04-10T09:00:00:Z","depth":"0","parameterNumber":3,"parameterNumberName":"V-component_of_CURRENTS"},"data":[0,0,0,0,0,0,0,0,0,0,0,0,0,0,0,0,0,0,0,0,0,0,0,0,0,0,0,0,0,0,0,0,0,0,0,0,0,0,0,0,0,0,0,0,0,0,0,0,0,0,0,0,0,0,0,0,0,0,0.0029,0.003,0,0.0195,0.0197,0.0199,0.0291,0.0291,0.0291,0.0292,0.047,0.0474,0.0479,0,0,0,0,0,0,0,0,0,0,0,0,0,-0.0093,-0.0092,0.0029,0.0031,0.0033,0.0195,0.0197,0.02,0.0291,0.0291,0.0291,0.0292,0.0468,0.0474,0.0479,0,0,0,0,0,0,0,0,0,0,0,0,0,0.0006,-0.0092,0.0028,0.0097,0.0105,0.0195,0.0197,0.02,0.0291,0.0291,0.0292,0.0292,0.0467,0.0473,0.048,0.0518,0,0,0.0501,0.0504,0,0,0,0,0,0,0,0,-0.0,0.001,0.0085,0.0092,0.0101,0.0222,0.022,0.0307,0.0291,0.0221,0.0292,0.0292,0.0387,0.0401,0.0433,0.0526,0.0534,0.0502,0.0506,0.0509,0.0511,0,0,0,0,0,0,0,-0.0007,0.0004,0.0096,0.0087,0.0097,0.016,0.0173,0.0237,0.0302,0.0228,0.0234,0.0251,0.0392,0.0426,0.0438,0.0537,0.0502,0.0508,0.0512,0.0515,0.0723,0.0724,0,0,0,0,0,0,-0.0036,-0.0003,0.009,0.0101,0.0049,0.0161,0.0176,0.0184,0.0301,0.0319,0.0251,0.0255,0.0414,0.0429,0.0444,0.0516,0.0509,0.0515,0.0519,0.0721,0.0723,0.0724,0,0,0,0,0,0,-0.004,-0.003,0.0084,0.0053,0.0071,0.0162,0.017,0.0187,0.0219,0.0319,0.0337,0.0266,0.0415,0.0434,0.0517,0.0522,0.0518,0.0525,0.072,0.0722,0.0724,0.0646,0,0,0,0,0,0,-0.0044,-0.0032,-0.0042,0.005,0.0072,0.0126,0.0171,0.019,0.0229,0.0236,0.0338,0.0355,0.0416,0.0507,0.0524,0.0532,0.053,0.0718,0.0721,0.0723,0.0647,0.0645,0.0644,0,0,0,0,0,-0.0049,-0.0069,-0.0044,-0.0033,0.0057,0.0125,0.0142,0.0209,0.0229,0.024,0.0324,0.0351,0.0535,0.0514,0.0534,0.0543,0.0717,0.072,0.0723,0.0648,0.0646,0.0644,0,0,0,0,0,0,-0.0132,-0.0059,-0.003,-0.0028,0.0039,0.014,0.015,0.02,0.0275,0.0279,0.0372,0.0396,0.047,0.0523,0.0496,0.0615,0.0629,0.0636,0.0565,0.0564,0.0563,0.0534,0.0536,0,0,0,0,0,-0.0155,-0.0151,-0.0062,-0.0062,-0.0035,0.0056,0.0089,0.0139,0.0219,0.0251,0.0329,0.0416,0.05,0.0542,0.0619,0.0681,0.0734,0.0702,0.0701,0.0699,0.0692,0.0784,0.0789,0.0735,0.0735,0.0735,0,0,-0.0188,-0.0148,-0.0146,-0.0079,-0.0026,0.0012,0.0076,0.0119,0.0161,0.0259,0.0328,0.041,0.0517,0.0593,0.063,0.0636,0.0744,0.0703,0.07,0.0695,0.0787,0.0792,0.0797,0.0737,0.0736,0.0736,0,0,-0.025,-0.0216,-0.0229,-0.0175,-0.0102,-0.0035,-0.0028,0.0073,0.0125,0.0206,0.0293,0.038,0.0497,0.0584,0.0641,0.0678,0.0732,0.0698,0.0667,0.0755,0.076,0.0764,0.0835,0.0846,0.0697,0.0697,0.0697,0,-0.0296,-0.0293,-0.0222,-0.0208,-0.0172,-0.0064,-0.0053,0.0024,0.0142,0.0191,0.0213,0.0417,0.0496,0.0614,0.0628,0.0672,0.0723,0.0658,0.075,0.0756,0.0761,0.0833,0.0846,0.0693,0.0694,0.0694,0.0695,0,-0.0355,-0.0343,-0.0346,-0.029,-0.0239,-0.0215,-0.0098,-0.0039,0.0034,0.0122,0.0244,0.0371,0.049,0.0532,0.0591,0.0682,0.0705,0.0732,0.0742,0.0761,0.0836,0.0852,0.0689,0.069,0.0691,0.0692,0,0,-0.0473,-0.0406,-0.0403,-0.0392,-0.0282,-0.0249,-0.0171,-0.0066,-0.0015,0.0112,0.019,0.0348,0.0418,0.0489,0.0583,0.0662,0.0747,0.0703,0.0709,0.075,0.0931,0.1024,0.105,0.0786,0.0788,0.079,0.0964,0,-0.054,-0.0561,-0.0482,-0.047,-0.0469,-0.0334,-0.027,-0.0155,-0.0041,0.0065,0.0223,0.0329,0.0405,0.0457,0.0554,0.0709,0.0785,0.0697,0.0926,0.0932,0.0995,0.107,0.1176,0.1347,0.0979,0.0982,0.0984,0,-0.0621,-0.062,-0.0642,-0.057,-0.0552,-0.0516,-0.0397,-0.0322,-0.0132,-0.0041,0.0106,0.0239,0.0407,0.0446,0.0713,0.0652,0.0774,0.0885,0.0895,0.1018,0.1055,0.1273,0.1389,0.167,0.1008,0.1006,0.1004,0,-0.0763,-0.0725,-0.0755,-0.073,-0.0628,-0.0601,-0.0538,-0.037,-0.0302,-0.0111,-0.0037,0.0187,0.0304,0.0495,0.075,0.0726,0.1031,0.1031,0.123,0.1237,0.1393,0.141,0.1791,0.1192,0.1192,0.1191,0.1191,0,-0.0871,-0.0885,-0.0831,-0.0842,-0.0861,-0.0737,-0.0707,-0.0599,-0.0438,-0.035,-0.0118,0.0012,0.0319,0.0548,0.0743,0.1062,0.1038,0.1246,0.1303,0.137,0.1383,0.1685,0.176,0.1198,0.1197,0.1195,0.1194,0,-0.1011,-0.0977,-0.1006,-0.0943,-0.0934,-0.0949,-0.0849,-0.081,-0.0636,-0.0512,-0.0455,-0.0111,0.0218,0.0534,0.088,0.1068,0.152,0.1443,0.1499,0.156,0.1993,0.2056,0.2417,0.2561,0.1692,0.1696,0.1699,0,-0.1083,-0.1121,-0.1116,-0.1155,-0.1132,-0.1129,-0.1117,-0.0949,-0.0879,-0.0572,-0.0513,-0.0153,0.0158,0.0734,0.1145,0.1551,0.1695,0.1831,0.1812,0.2068,0.218,0.2194,0.2288,0.1986,0.1991,0.1995,0.1998,0,-0.1213,-0.1213,-0.124,-0.1334,-0.1356,-0.1356,-0.131,-0.1279,-0.1042,-0.087,-0.0556,-0.0276,0.0368,0.0974,0.1516,0.1722,0.2053,0.1927,0.2204,0.2463,0.2495,0.2643,0.1797,0.2036,0.2032,0.2029,0.2027,0.2026,-0.1301,-0.1372,-0.1427,-0.1506,-0.1543,-0.1552,-0.1546,-0.1429,-0.1284,-0.0928,-0.062,-0.0084,0.0822,0.1661,0.1929,0.254,0.2385,0.2687,0.2746,0.2739,0.2889,0.2115,0.2406,0.2405,0.2404,0.2402,0.2401,0,-0.1413,-0.1492,-0.1593,-0.167,-0.1735,-0.1703,-0.1644,-0.1557,-0.138,-0.0914,-0.0515,0.058,0.1442,0.2194,0.3089,0.3378,0.3393,0.3475,0.3551,0.3608,0.2971,0.3,0.3422,0.3422,0.3421,0.3421,0.3421,0.342,-0.1476,-0.1617,-0.1672,-0.1818,-0.1865,-0.1883,-0.1845,-0.1651,-0.1315,-0.0551,0.0141,0.0712,0.1804,0.3327,0.4122,0.4132,0.4364,0.4298,0.4404,0.4005,0.3936,0.387,0.3924,0.4532,0.4533,0.5047,0.5052,0.5056]}],[{"header":{"parameterUnit":"m.s-1","parameterCategory":2,"la1":30.2991,"la2":30.254,"lo1":-89.0895,"lo2":-89.0444,"dy":0.0017,"dx":0.0017,"nx":28,"ny":28,"refTime":"2024-04-10T09:00:00:Z","depth":"2","parameterNumber":2,"parameterNumberName":"U-component_of_CURRENTS"},"data":[0,0,0,0,0,0,0,0,0,0,0,0,0,0,0,0,0,0,0,0,0,0,0,0,0,0,0,0,0,0,0,0,0,0,0,0,0,0,0,0,0,0,0,0,0,0,0,0,0,0,0,0,0,0,0,0,0,0,-0.3323,-0.3324,0,-0.3399,-0.34,-0.34,-0.3368,-0.3367,-0.3366,-0.3365,-0.324,-0.3238,-0.3236,0,0,0,0,0,0,0,0,0,0,0,0,0,-0.3104,-0.3108,-0.3323,-0.3324,-0.3326,-0.3399,-0.34,-0.34,-0.3369,-0.3367,-0.3366,-0.3364,-0.3241,-0.3238,-0.3235,0,0,0,0,0,0,0,0,0,0,0,0,0,-0.3185,-0.3109,-0.3322,-0.3324,-0.3325,-0.3399,-0.34,-0.34,-0.3369,-0.3367,-0.3365,-0.3364,-0.3242,-0.3238,-0.3235,-0.3251,0,0,-0.3225,-0.3224,0,0,0,0,0,0,0,0,-0.3181,-0.3192,-0.3322,-0.3324,-0.3326,-0.3378,-0.3277,-0.3343,-0.3369,-0.3345,-0.3365,-0.3363,-0.3273,-0.3267,-0.3279,-0.3245,-0.324,-0.3225,-0.3223,-0.3221,-0.322,0,0,0,0,0,0,0,-0.3175,-0.3189,-0.3346,-0.3324,-0.3326,-0.3306,-0.3315,-0.329,-0.3309,-0.3347,-0.3347,-0.3367,-0.3272,-0.3283,-0.3275,-0.3238,-0.3225,-0.3222,-0.322,-0.3219,-0.3219,-0.3221,0,0,0,0,0,0,-0.3185,-0.3184,-0.3344,-0.3349,-0.3255,-0.3312,-0.3322,-0.3358,-0.3314,-0.331,-0.3368,-0.3365,-0.3289,-0.3279,-0.3271,-0.328,-0.3221,-0.3218,-0.3216,-0.3217,-0.3219,-0.3221,0,0,0,0,0,0,-0.318,-0.3199,-0.3341,-0.3272,-0.3289,-0.3319,-0.3359,-0.336,-0.3366,-0.3334,-0.3323,-0.3372,-0.3287,-0.3275,-0.3263,-0.3274,-0.3217,-0.3214,-0.3215,-0.3218,-0.322,-0.3301,0,0,0,0,0,0,-0.3173,-0.3197,-0.3218,-0.3274,-0.3294,-0.3389,-0.3361,-0.3363,-0.3385,-0.3381,-0.3334,-0.3321,-0.3285,-0.3269,-0.326,-0.3268,-0.3211,-0.3212,-0.3216,-0.3219,-0.3296,-0.3306,-0.3315,0,0,0,0,0,-0.3166,-0.3206,-0.3219,-0.3238,-0.3326,-0.3391,-0.3399,-0.3407,-0.3387,-0.3402,-0.3376,-0.3322,-0.3286,-0.3268,-0.3258,-0.3265,-0.321,-0.3215,-0.3219,-0.3291,-0.3304,-0.3315,0,0,0,0,0,0,-0.3111,-0.3209,-0.3223,-0.3288,-0.3338,-0.3388,-0.3408,-0.3413,-0.3409,-0.3396,-0.3347,-0.3335,-0.333,-0.3296,-0.3278,-0.3281,-0.3239,-0.3242,-0.3298,-0.3309,-0.3319,-0.3327,-0.3209,0,0,0,0,0,-0.3116,-0.3175,-0.3252,-0.33,-0.3331,-0.3368,-0.3392,-0.3406,-0.3419,-0.3416,-0.3388,-0.336,-0.3345,-0.3325,-0.3309,-0.3306,-0.3283,-0.3307,-0.3317,-0.3325,-0.3328,-0.3314,-0.3322,-0.3236,-0.3236,-0.3236,0,0,-0.3106,-0.3169,-0.3199,-0.3293,-0.333,-0.339,-0.3376,-0.3426,-0.3459,-0.34,-0.3418,-0.3392,-0.3356,-0.336,-0.3354,-0.3327,-0.3344,-0.333,-0.3337,-0.3336,-0.3319,-0.3327,-0.3334,-0.3239,-0.3238,-0.3238,0,0,-0.3132,-0.3177,-0.3241,-0.3292,-0.337,-0.3399,-0.3416,-0.3473,-0.3479,-0.3505,-0.3473,-0.3462,-0.3436,-0.342,-0.3405,-0.346,-0.3401,-0.345,-0.3494,-0.3481,-0.3487,-0.3492,-0.3495,-0.35,-0.3448,-0.3448,-0.3448,0,-0.311,-0.3211,-0.3263,-0.3337,-0.3378,-0.3407,-0.347,-0.3495,-0.3534,-0.3541,-0.3516,-0.3503,-0.3466,-0.3473,-0.3494,-0.3478,-0.3467,-0.3448,-0.3492,-0.3496,-0.35,-0.3501,-0.3505,-0.3453,-0.3452,-0.3452,-0.3451,0,-0.3197,-0.3267,-0.3306,-0.3412,-0.3457,-0.3514,-0.3568,-0.3596,-0.3597,-0.3613,-0.3622,-0.3591,-0.3575,-0.3569,-0.3543,-0.3559,-0.3543,-0.3509,-0.3457,-0.3513,-0.3512,-0.3515,-0.3459,-0.3457,-0.3456,-0.3455,0,0,-0.3172,-0.3335,-0.3348,-0.3401,-0.3499,-0.3545,-0.3604,-0.3665,-0.3693,-0.3702,-0.3728,-0.3708,-0.3681,-0.3665,-0.3632,-0.362,-0.3642,-0.358,-0.3577,-0.3576,-0.3628,-0.362,-0.3622,-0.3611,-0.3611,-0.3612,-0.3623,0,-0.3218,-0.3359,-0.343,-0.353,-0.3597,-0.3641,-0.3695,-0.3743,-0.376,-0.379,-0.3761,-0.3766,-0.3721,-0.3708,-0.3695,-0.3656,-0.365,-0.3643,-0.358,-0.3579,-0.3557,-0.3625,-0.328,-0.3262,-0.3625,-0.3626,-0.3626,0,-0.3278,-0.3365,-0.348,-0.3595,-0.3627,-0.3675,-0.3748,-0.3801,-0.3847,-0.3862,-0.3862,-0.3843,-0.3837,-0.3782,-0.3745,-0.3742,-0.3695,-0.3661,-0.366,-0.3622,-0.3575,-0.3261,-0.3252,-0.363,-0.363,-0.3629,-0.3629,0,-0.3235,-0.3391,-0.3474,-0.3517,-0.3653,-0.3685,-0.3735,-0.3801,-0.3845,-0.389,-0.3917,-0.391,-0.3895,-0.3849,-0.3785,-0.3762,-0.3746,-0.3698,-0.3652,-0.3651,-0.333,-0.3301,-0.367,-0.367,-0.367,-0.367,-0.367,0,-0.3259,-0.3321,-0.3453,-0.3498,-0.3564,-0.366,-0.3721,-0.3774,-0.3855,-0.3904,-0.3929,-0.3954,-0.3907,-0.3891,-0.3825,-0.3763,-0.3773,-0.3679,-0.3657,-0.3355,-0.333,-0.3617,-0.361,-0.3671,-0.3671,-0.3671,-0.367,0,-0.3204,-0.3306,-0.3385,-0.3514,-0.3546,-0.3575,-0.3693,-0.3749,-0.3833,-0.3897,-0.3913,-0.398,-0.3965,-0.393,-0.3864,-0.3809,-0.3751,-0.372,-0.3392,-0.3334,-0.3657,-0.3655,-0.3675,-0.3675,-0.3675,-0.3675,-0.3675,0,-0.3201,-0.324,-0.335,-0.3382,-0.3432,-0.3504,-0.3565,-0.3694,-0.3757,-0.3902,-0.3925,-0.3966,-0.3961,-0.3908,-0.3761,-0.3662,-0.3751,-0.3365,-0.3265,-0.3683,-0.3659,-0.3657,-0.3655,-0.2866,-0.2859,-0.2854,-0.2849,0,-0.3158,-0.318,-0.3243,-0.3285,-0.3342,-0.3409,-0.3499,-0.3556,-0.3716,-0.3788,-0.3885,-0.39,-0.3846,-0.3593,-0.3491,-0.338,-0.336,-0.3259,-0.3733,-0.2956,-0.293,-0.2905,-0.2926,-0.2801,-0.2806,-0.2809,-0.2812,-0.2814,-0.31,-0.3097,-0.3146,-0.3173,-0.323,-0.3259,-0.3253,-0.332,-0.3377,-0.3343,-0.3617,-0.3471,-0.3485,-0.3098,-0.3011,-0.2895,-0.3098,-0.2955,-0.2966,-0.2983,-0.2926,-0.2905,-0.276,-0.2764,-0.2768,-0.2771,-0.2774,0,-0.2961,-0.3028,-0.3036,-0.3045,-0.2964,-0.3092,-0.3169,-0.3012,-0.2931,-0.2959,-0.2943,-0.2662,-0.256,-0.2576,-0.2316,-0.2361,-0.2253,-0.2301,-0.2128,-0.2176,-0.222,-0.2119,-0.1741,-0.1739,-0.1736,-0.1734,0,0,-0.2911,-0.2845,-0.2816,-0.2689,-0.274,-0.2534,-0.2522,-0.2331,-0.2218,-0.1985,-0.1917,-0.2127,-0.2364,-0.1961,-0.1965,-0.1804,-0.1939,-0.171,-0.252,-0.2348,-0.2387,-0.2572,-0.247,0,0,0,0,0]},{"header":{"parameterUnit":"m.s-1","parameterCategory":2,"la1":30.2991,"la2":30.254,"lo1":-89.0895,"lo2":-89.0444,"dy":0.0017,"dx":0.0017,"nx":28,"ny":28,"refTime":"2024-04-10T09:00:00:Z","depth":"2","parameterNumber":3,"parameterNumberName":"V-component_of_CURRENTS"},"data":[0,0,0,0,0,0,0,0,0,0,0,0,0,0,0,0,0,0,0,0,0,0,0,0,0,0,0,0,0,0,0,0,0,0,0,0,0,0,0,0,0,0,0,0,0,0,0,0,0,0,0,0,0,0,0,0,0,0,0.0004,0.0005,0,0.0169,0.0171,0.0173,0.0265,0.0265,0.0265,0.0266,0.0443,0.0447,0.0452,0,0,0,0,0,0,0,0,0,0,0,0,0,-0.0117,-0.0116,0.0003,0.0005,0.0007,0.0168,0.0171,0.0173,0.0265,0.0265,0.0266,0.0266,0.0441,0.0447,0.0452,0,0,0,0,0,0,0,0,0,0,0,0,0,-0.0019,-0.0116,0.0003,0.0072,0.008,0.0168,0.0171,0.0174,0.0265,0.0265,0.0266,0.0266,0.0439,0.0446,0.0453,0.0489,0,0,0.0474,0.0477,0,0,0,0,0,0,0,0,-0.0025,-0.0015,0.006,0.0067,0.0076,0.0196,0.0193,0.028,0.0265,0.0196,0.0266,0.0266,0.036,0.0374,0.0405,0.0497,0.0505,0.0474,0.0478,0.0481,0.0483,0,0,0,0,0,0,0,-0.0032,-0.002,0.007,0.0062,0.0072,0.0134,0.0147,0.0211,0.0275,0.0202,0.0209,0.0225,0.0365,0.0399,0.041,0.0508,0.0474,0.048,0.0484,0.0487,0.0691,0.0693,0,0,0,0,0,0,-0.0061,-0.0028,0.0065,0.0075,0.0024,0.0135,0.015,0.0158,0.0275,0.0293,0.0225,0.0229,0.0387,0.0402,0.0417,0.0487,0.0481,0.0488,0.0491,0.069,0.0692,0.0693,0,0,0,0,0,0,-0.0064,-0.0054,0.0058,0.0027,0.0046,0.0136,0.0145,0.0161,0.0194,0.0292,0.031,0.024,0.0388,0.0407,0.0489,0.0494,0.0491,0.0497,0.0688,0.0691,0.0692,0.0615,0,0,0,0,0,0,-0.0068,-0.0057,-0.0067,0.0025,0.0046,0.0099,0.0145,0.0164,0.0203,0.021,0.0311,0.0328,0.0389,0.0479,0.0496,0.0503,0.0502,0.0687,0.0689,0.0692,0.0616,0.0614,0.0612,0,0,0,0,0,-0.0073,-0.0094,-0.0068,-0.0057,0.0031,0.0099,0.0115,0.0182,0.0203,0.0213,0.0297,0.0325,0.0507,0.0485,0.0505,0.0514,0.0686,0.0689,0.0692,0.0616,0.0614,0.0612,0,0,0,0,0,0,-0.0156,-0.0083,-0.0054,-0.0053,0.0014,0.0113,0.0123,0.0173,0.0248,0.0252,0.0345,0.0369,0.0442,0.0494,0.0468,0.0585,0.0599,0.0607,0.0536,0.0534,0.0533,0.0505,0.0508,0,0,0,0,0,-0.0179,-0.0175,-0.0087,-0.0087,-0.0061,0.003,0.0063,0.0112,0.0192,0.0224,0.0301,0.0388,0.0471,0.0513,0.0588,0.0649,0.0702,0.0671,0.0669,0.0667,0.0661,0.0751,0.0756,0.0703,0.0703,0.0703,0,0,-0.0211,-0.0172,-0.017,-0.0104,-0.0051,-0.0014,0.005,0.0092,0.0133,0.0231,0.03,0.0381,0.0487,0.0563,0.0599,0.0605,0.0712,0.0671,0.0668,0.0663,0.0755,0.076,0.0764,0.0705,0.0705,0.0704,0,0,-0.0274,-0.024,-0.0254,-0.02,-0.0128,-0.0062,-0.0055,0.0045,0.0097,0.0178,0.0264,0.0351,0.0466,0.0553,0.0609,0.0645,0.0699,0.0665,0.0634,0.0721,0.0726,0.073,0.08,0.0811,0.0664,0.0664,0.0663,0,-0.032,-0.0317,-0.0246,-0.0234,-0.0198,-0.009,-0.008,-0.0004,0.0113,0.0162,0.0184,0.0386,0.0464,0.0581,0.0595,0.0639,0.069,0.0625,0.0716,0.0722,0.0727,0.0798,0.0812,0.066,0.0661,0.0661,0.0661,0,-0.038,-0.0368,-0.0371,-0.0317,-0.0267,-0.0243,-0.0128,-0.0069,0.0004,0.0092,0.0213,0.0339,0.0457,0.0499,0.0558,0.0648,0.0671,0.0698,0.0709,0.0727,0.0802,0.0817,0.0655,0.0657,0.0658,0.0658,0,0,-0.0497,-0.0432,-0.0429,-0.0418,-0.0309,-0.0278,-0.0201,-0.0097,-0.0046,0.008,0.0158,0.0314,0.0385,0.0455,0.0549,0.0628,0.0712,0.0668,0.0675,0.0716,0.0895,0.0984,0.101,0.0751,0.0753,0.0755,0.0927,0,-0.0565,-0.0587,-0.0509,-0.0498,-0.0497,-0.0363,-0.0301,-0.0187,-0.0073,0.0032,0.019,0.0295,0.0371,0.0423,0.0519,0.0674,0.075,0.0662,0.089,0.0897,0.0956,0.103,0.0815,0.0957,0.0943,0.0945,0.0947,0,-0.0646,-0.0646,-0.0669,-0.0598,-0.0581,-0.0545,-0.0427,-0.0353,-0.0164,-0.0073,0.0073,0.0206,0.0372,0.0412,0.0677,0.0617,0.0739,0.0849,0.0859,0.0978,0.1016,0.0942,0.0986,0.0973,0.0971,0.0969,0.0968,0,-0.0787,-0.075,-0.0781,-0.0756,-0.0657,-0.0629,-0.0567,-0.0401,-0.0334,-0.0143,-0.007,0.0154,0.027,0.046,0.0714,0.0691,0.0994,0.0994,0.1189,0.1196,0.1079,0.1073,0.1155,0.1154,0.1154,0.1153,0.1153,0,-0.0895,-0.0909,-0.0856,-0.0868,-0.0887,-0.0764,-0.0734,-0.0627,-0.0467,-0.038,-0.0149,-0.0021,0.0285,0.0513,0.0707,0.1022,0.1,0.1205,0.1261,0.1049,0.1039,0.1101,0.1092,0.116,0.1158,0.1157,0.1156,0,-0.1034,-0.1001,-0.103,-0.0968,-0.0959,-0.0974,-0.0875,-0.0837,-0.0664,-0.0541,-0.0484,-0.0143,0.0183,0.0497,0.0842,0.1028,0.1299,0.1399,0.1135,0.116,0.1433,0.1418,0.1635,0.164,0.1644,0.1647,0.165,0,-0.1106,-0.1143,-0.1139,-0.1178,-0.1156,-0.1152,-0.1141,-0.0974,-0.0905,-0.0602,-0.0543,-0.0186,0.011,0.0681,0.1003,0.1381,0.1424,0.1447,0.1385,0.1457,0.1489,0.1468,0.1449,0.1181,0.118,0.1179,0.1179,0,-0.1235,-0.1235,-0.1262,-0.1356,-0.1378,-0.1378,-0.1332,-0.1302,-0.1068,-0.0905,-0.0595,-0.0329,0.0225,0.0621,0.1123,0.1302,0.1378,0.1448,0.1595,0.1118,0.1051,0.1076,0.1067,0.117,0.1171,0.1172,0.1172,0.1172,-0.1323,-0.1394,-0.1447,-0.1526,-0.1563,-0.1573,-0.1567,-0.1471,-0.1338,-0.1074,-0.0745,-0.0359,0.0109,0.0751,0.1105,0.1382,0.142,0.1461,0.1454,0.145,0.1392,0.1339,0.1499,0.1501,0.1504,0.1506,0.1508,0,-0.1433,-0.1513,-0.1613,-0.1689,-0.1749,-0.1722,-0.1664,-0.1614,-0.1475,-0.121,-0.0897,-0.0405,0.0083,0.0569,0.0971,0.1323,0.1215,0.1381,0.1151,0.1155,0.116,0.108,0.1109,0.111,0.1111,0.1112,0,0,-0.1495,-0.1634,-0.169,-0.1829,-0.1877,-0.1904,-0.1868,-0.177,-0.1585,-0.1326,-0.1058,-0.0636,0.0022,0.0265,0.0665,0.0886,0.0922,0.0878,0.1138,0.0812,0.0814,0.1131,0.1006,0,0,0,0,0]}],[{"header":{"parameterUnit":"m.s-1","parameterCategory":2,"la1":30.2991,"la2":30.254,"lo1":-89.0895,"lo2":-89.0444,"dy":0.0017,"dx":0.0017,"nx":28,"ny":28,"refTime":"2024-04-10T09:00:00:Z","depth":"4","parameterNumber":2,"parameterNumberName":"U-component_of_CURRENTS"},"data":[0,0,0,0,0,0,0,0,0,0,0,0,0,0,0,0,0,0,0,0,0,0,0,0,0,0,0,0,0,0,0,0,0,0,0,0,0,0,0,0,0,0,0,0,0,0,0,0,0,0,0,0,0,0,0,0,0,0,-0.178,-0.1781,0,-0.1879,-0.188,-0.1881,-0.1929,-0.1929,-0.193,-0.193,-0.1912,-0.1911,-0.191,0,0,0,0,0,0,0,0,0,0,0,0,0,-0.1619,-0.1621,-0.1779,-0.1781,-0.1783,-0.1879,-0.188,-0.1881,-0.1929,-0.1929,-0.193,-0.193,-0.1912,-0.1911,-0.191,0,0,0,0,0,0,0,0,0,0,0,0,0,-0.1697,-0.1622,-0.1779,-0.1821,-0.1825,-0.1879,-0.188,-0.1882,-0.1929,-0.1929,-0.193,-0.193,-0.1912,-0.1911,-0.191,-0.1895,0,0,-0.1907,-0.1906,0,0,0,0,0,0,0,0,-0.1693,-0.1703,-0.1813,-0.1818,-0.1823,-0.1895,-0.1817,-0.1881,-0.1929,-0.1886,-0.193,-0.193,-0.1897,-0.1897,-0.1912,-0.1894,-0.1893,-0.1907,-0.1906,-0.1905,-0.1905,0,0,0,0,0,0,0,-0.1687,-0.1699,-0.1816,-0.1815,-0.1821,-0.183,-0.1842,-0.183,-0.1883,-0.189,-0.1895,-0.1911,-0.1899,-0.1913,-0.1912,-0.1893,-0.1907,-0.1906,-0.1905,-0.1904,-0.1975,-0.1978,0,0,0,0,0,0,-0.1682,-0.1694,-0.1812,-0.1819,-0.1762,-0.1833,-0.1846,-0.1869,-0.1886,-0.1891,-0.191,-0.1913,-0.1915,-0.1913,-0.1911,-0.2,-0.1905,-0.1904,-0.1904,-0.1973,-0.1976,-0.1979,0,0,0,0,0,0,-0.1678,-0.1692,-0.1809,-0.176,-0.1776,-0.1836,-0.1861,-0.1871,-0.1918,-0.1904,-0.1906,-0.1952,-0.1915,-0.1913,-0.1952,-0.1995,-0.1904,-0.1903,-0.197,-0.1974,-0.1977,-0.2109,0,0,0,0,0,0,-0.1673,-0.169,-0.1716,-0.1761,-0.1779,-0.1863,-0.1862,-0.1873,-0.1927,-0.1932,-0.1939,-0.1937,-0.1915,-0.1954,-0.195,-0.1992,-0.1902,-0.1967,-0.1972,-0.1976,-0.2102,-0.2117,-0.213,0,0,0,0,0,-0.1667,-0.1696,-0.1717,-0.1732,-0.1809,-0.1864,-0.1875,-0.1915,-0.1929,-0.1958,-0.198,-0.1938,-0.1981,-0.1955,-0.1951,-0.1993,-0.1964,-0.197,-0.1976,-0.2095,-0.2114,-0.213,0,0,0,0,0,0,-0.1639,-0.1706,-0.1728,-0.1777,-0.1829,-0.1874,-0.1907,-0.1935,-0.1977,-0.1988,-0.1971,-0.1971,-0.2022,-0.1991,-0.1963,-0.2029,-0.1965,-0.197,-0.2057,-0.2075,-0.2089,-0.2085,-0.1901,0,0,0,0,0,-0.1645,-0.1685,-0.1748,-0.1788,-0.1817,-0.1869,-0.1901,-0.1935,-0.1973,-0.1994,-0.2008,-0.202,-0.2037,-0.2045,-0.205,-0.2081,-0.2051,-0.2106,-0.212,-0.2132,-0.2129,-0.2137,-0.2151,-0.1997,-0.1997,-0.1997,0,0,-0.1644,-0.1687,-0.171,-0.1785,-0.1826,-0.1885,-0.189,-0.1953,-0.201,-0.1981,-0.2064,-0.2072,-0.2059,-0.2109,-0.2127,-0.209,-0.2167,-0.214,-0.215,-0.2139,-0.2144,-0.2159,-0.2172,-0.2001,-0.2001,-0.2,0,0,-0.1655,-0.1704,-0.1742,-0.1795,-0.1873,-0.1912,-0.1939,-0.2014,-0.2058,-0.213,-0.2134,-0.2177,-0.2197,-0.2211,-0.2213,-0.2305,-0.2247,-0.2308,-0.2372,-0.2381,-0.2393,-0.2404,-0.2407,-0.2417,-0.231,-0.231,-0.231,0,-0.1651,-0.1716,-0.1761,-0.1818,-0.1873,-0.193,-0.1994,-0.2047,-0.213,-0.2171,-0.2171,-0.2248,-0.2244,-0.2302,-0.2345,-0.2336,-0.2328,-0.2308,-0.2399,-0.2408,-0.2417,-0.2417,-0.2426,-0.2317,-0.2316,-0.2316,-0.2315,0,-0.1689,-0.1758,-0.1788,-0.1882,-0.1944,-0.2009,-0.2092,-0.2164,-0.2222,-0.227,-0.2358,-0.2371,-0.2411,-0.2427,-0.2415,-0.2483,-0.2456,-0.2421,-0.2353,-0.244,-0.2436,-0.2442,-0.2327,-0.2325,-0.2323,-0.2321,0,0,-0.163,-0.1785,-0.1799,-0.1868,-0.1991,-0.2045,-0.2151,-0.2256,-0.2331,-0.2402,-0.2487,-0.2538,-0.2551,-0.2554,-0.2553,-0.2566,-0.2635,-0.2528,-0.2526,-0.2528,-0.2659,-0.2511,-0.2503,-0.2619,-0.262,-0.2621,-0.264,0,-0.1649,-0.1763,-0.1844,-0.197,-0.2039,-0.2143,-0.2239,-0.2342,-0.2421,-0.2517,-0.2549,-0.2621,-0.2597,-0.263,-0.2646,-0.2638,-0.2655,-0.2632,-0.2576,-0.2574,-0.2428,-0.2506,-0.2626,-0.2644,-0.2646,-0.2647,-0.2647,0,-0.1649,-0.1737,-0.1858,-0.2034,-0.2076,-0.2164,-0.2328,-0.2422,-0.2555,-0.2619,-0.2689,-0.2715,-0.2773,-0.273,-0.2751,-0.274,-0.2715,-0.2694,-0.2693,-0.2505,-0.2437,-0.2533,-0.2658,-0.2657,-0.2656,-0.2656,-0.2655,0,-0.1564,-0.1744,-0.1845,-0.1905,-0.2104,-0.219,-0.2299,-0.2448,-0.2536,-0.2679,-0.2743,-0.2809,-0.2845,-0.2833,-0.2806,-0.2788,-0.2806,-0.2765,-0.2607,-0.2597,-0.2664,-0.2652,-0.2772,-0.2772,-0.2772,-0.2772,-0.2772,0,-0.153,-0.1613,-0.1824,-0.1878,-0.2013,-0.2167,-0.2309,-0.2424,-0.2584,-0.2674,-0.2782,-0.283,-0.2872,-0.2886,-0.2845,-0.2746,-0.2835,-0.2625,-0.2592,-0.2723,-0.2718,-0.267,-0.2658,-0.2772,-0.2772,-0.2772,-0.2772,0,-0.1399,-0.1542,-0.1669,-0.1896,-0.1972,-0.2063,-0.2298,-0.2392,-0.2561,-0.2678,-0.2726,-0.2858,-0.2867,-0.2885,-0.2869,-0.2773,-0.2708,-0.265,-0.2809,-0.2783,-0.2484,-0.248,-0.2467,-0.2462,-0.2458,-0.2454,-0.2451,0,-0.1335,-0.1386,-0.1635,-0.172,-0.1828,-0.1997,-0.2112,-0.2338,-0.2428,-0.2658,-0.2684,-0.2781,-0.2835,-0.2696,-0.2731,-0.2656,-0.2613,-0.258,-0.2513,-0.2484,-0.2454,-0.2456,-0.2457,-0.2444,-0.2443,-0.2442,-0.2441,0,-0.1191,-0.1292,-0.1404,-0.1574,-0.1719,-0.1862,-0.2037,-0.209,-0.2338,-0.2524,-0.2575,-0.2591,-0.2604,-0.2577,-0.2549,-0.2489,-0.2603,-0.2534,-0.2541,-0.2477,-0.2457,-0.2431,-0.2437,-0.2426,-0.2428,-0.243,-0.2431,0,-0.1064,-0.1108,-0.1261,-0.1408,-0.1577,-0.1667,-0.1798,-0.1929,-0.205,-0.2326,-0.2333,-0.2445,-0.2577,-0.249,-0.246,-0.24,-0.2343,-0.2259,-0.228,-0.2297,-0.2229,-0.2177,-0.2036,0,0,0,0,0,-0.0908,-0.0953,-0.1082,-0.1235,-0.1402,-0.1484,-0.1721,-0.186,-0.2109,-0.209,-0.2212,-0.2222,-0.2215,-0.2269,-0.2159,-0.2343,-0.2325,-0.2206,-0.2233,-0.2344,-0.2361,-0.2295,0,0,0,0,0,0,-0.081,-0.0893,-0.1001,-0.1055,-0.1119,-0.1262,-0.1398,-0.1579,-0.1593,-0.1854,-0.185,-0.2059,-0.2058,-0.2204,-0.2088,-0.2106,-0.2077,-0.2296,-0.229,-0.2334,-0.2349,-0.2363,-0.2302,0,0,0,0,0]},{"header":{"parameterUnit":"m.s-1","parameterCategory":2,"la1":30.2991,"la2":30.254,"lo1":-89.0895,"lo2":-89.0444,"dy":0.0017,"dx":0.0017,"nx":28,"ny":28,"refTime":"2024-04-10T09:00:00:Z","depth":"4","parameterNumber":3,"parameterNumberName":"V-component_of_CURRENTS"},"data":[0,0,0,0,0,0,0,0,0,0,0,0,0,0,0,0,0,0,0,0,0,0,0,0,0,0,0,0,0,0,0,0,0,0,0,0,0,0,0,0,0,0,0,0,0,0,0,0,0,0,0,0,0,0,0,0,0,0,-0.0183,-0.0183,0,-0.0083,-0.0082,-0.008,-0.0001,-0.0,0.0,0.0001,0.0123,0.0126,0.0128,0,0,0,0,0,0,0,0,0,0,0,0,0,-0.0251,-0.0251,-0.0184,-0.0182,-0.0181,-0.0083,-0.0081,-0.008,-0.0001,-0.0,0.0001,0.0001,0.0122,0.0125,0.0128,0,0,0,0,0,0,0,0,0,0,0,0,0,-0.0192,-0.0251,-0.0184,-0.0131,-0.0125,-0.0083,-0.0081,-0.008,-0.0001,-0.0,0.0001,0.0002,0.0121,0.0125,0.0129,0.0134,0,0,0.0141,0.0143,0,0,0,0,0,0,0,0,-0.0196,-0.019,-0.014,-0.0135,-0.0128,-0.0055,-0.0061,-0.0008,-0.0001,-0.0047,0.0001,0.0002,0.0064,0.0073,0.0091,0.0139,0.0144,0.0141,0.0144,0.0145,0.0147,0,0,0,0,0,0,0,-0.02,-0.0193,-0.0142,-0.0139,-0.0132,-0.0093,-0.0084,-0.005,0.0003,-0.0043,-0.0037,-0.0028,0.0068,0.0087,0.0095,0.0146,0.0141,0.0145,0.0147,0.0149,0.0261,0.0262,0,0,0,0,0,0,-0.0219,-0.0198,-0.0146,-0.0139,-0.0162,-0.0093,-0.0083,-0.0078,0.0003,0.0015,-0.0029,-0.0025,0.008,0.009,0.0099,0.0142,0.0145,0.0149,0.0151,0.026,0.0261,0.0262,0,0,0,0,0,0,-0.0221,-0.0216,-0.015,-0.0167,-0.0156,-0.0094,-0.0088,-0.0077,-0.0055,0.0012,0.0026,-0.0019,0.0081,0.0094,0.0146,0.0146,0.0151,0.0154,0.026,0.0261,0.0262,0.0206,0,0,0,0,0,0,-0.0224,-0.0217,-0.0226,-0.0169,-0.0156,-0.0136,-0.0089,-0.0075,-0.0052,-0.0045,0.0025,0.0038,0.0083,0.0139,0.0149,0.0152,0.0158,0.0259,0.026,0.0261,0.0207,0.0205,0.0204,0,0,0,0,0,-0.0227,-0.025,-0.0227,-0.022,-0.0168,-0.0137,-0.0128,-0.0078,-0.0052,-0.0053,0.0013,0.0036,0.0154,0.0143,0.0155,0.0158,0.0258,0.026,0.0261,0.0208,0.0206,0.0204,0,0,0,0,0,0,-0.0285,-0.0242,-0.0216,-0.0224,-0.0187,-0.0125,-0.0127,-0.0086,-0.0036,-0.0028,0.0043,0.006,0.0106,0.014,0.0126,0.0196,0.0209,0.0213,0.0165,0.0163,0.0161,0.0145,0.0161,0,0,0,0,0,-0.0303,-0.0308,-0.0253,-0.0261,-0.0248,-0.0187,-0.017,-0.0134,-0.008,-0.0057,-0.0001,0.0061,0.0119,0.0147,0.0195,0.0228,0.0271,0.024,0.0238,0.0235,0.0232,0.0309,0.0313,0.0266,0.0266,0.0266,0,0,-0.0329,-0.0306,-0.0309,-0.0274,-0.0243,-0.0231,-0.0174,-0.0158,-0.0134,-0.0053,-0.0011,0.0051,0.0127,0.0173,0.0196,0.0202,0.0271,0.0237,0.0235,0.0232,0.031,0.0315,0.0319,0.0267,0.0267,0.0267,0,0,-0.0389,-0.0363,-0.0388,-0.0358,-0.0319,-0.0276,-0.0274,-0.0212,-0.0173,-0.0125,-0.0051,0.0017,0.0087,0.0156,0.0197,0.0211,0.0257,0.0221,0.0199,0.0273,0.0277,0.0282,0.0333,0.0343,0.0221,0.0221,0.0221,0,-0.0423,-0.0435,-0.039,-0.0397,-0.0377,-0.0301,-0.0308,-0.026,-0.0183,-0.0144,-0.0124,0.0025,0.0082,0.017,0.018,0.0206,0.0248,0.0198,0.0269,0.0275,0.028,0.0332,0.0343,0.0219,0.0219,0.0219,0.0219,0,-0.0492,-0.0493,-0.0506,-0.0483,-0.0457,-0.0453,-0.0377,-0.0341,-0.0283,-0.0217,-0.0125,-0.0028,0.0064,0.0094,0.0141,0.0214,0.023,0.0255,0.0269,0.0281,0.0336,0.0348,0.0215,0.0216,0.0217,0.0217,0,0,-0.0577,-0.056,-0.0561,-0.0558,-0.0497,-0.0484,-0.0443,-0.0375,-0.0337,-0.0247,-0.0183,-0.0066,0.0001,0.0053,0.0132,0.02,0.0272,0.0235,0.0241,0.0276,0.0423,0.0378,0.0388,0.0309,0.0311,0.0313,0.0442,0,-0.0639,-0.0681,-0.064,-0.0652,-0.066,-0.0569,-0.0536,-0.0458,-0.0374,-0.0294,-0.0165,-0.0082,-0.0017,0.0031,0.0113,0.0241,0.0303,0.0233,0.0416,0.0421,0.0372,0.04,0.032,0.0452,0.0455,0.0457,0.0458,0,-0.0708,-0.0724,-0.0765,-0.0727,-0.0721,-0.0711,-0.0629,-0.0587,-0.0448,-0.0377,-0.0257,-0.015,-0.0012,0.0025,0.0244,0.0196,0.0297,0.0387,0.0394,0.038,0.04,0.0444,0.0481,0.048,0.0478,0.0476,0.0475,0,-0.0792,-0.0797,-0.0836,-0.0825,-0.078,-0.0769,-0.0734,-0.0619,-0.0575,-0.0428,-0.0371,-0.0188,-0.0092,0.0068,0.0267,0.0257,0.0492,0.0505,0.0559,0.0556,0.0581,0.0575,0.0637,0.0637,0.0637,0.0637,0.0636,0,-0.0859,-0.0885,-0.0884,-0.0902,-0.0929,-0.0859,-0.0849,-0.0774,-0.0667,-0.061,-0.0426,-0.0333,-0.0078,0.0097,0.0258,0.0451,0.0493,0.0558,0.0591,0.0554,0.0544,0.059,0.0582,0.0641,0.064,0.0639,0.0639,0,-0.0933,-0.0939,-0.098,-0.0969,-0.0975,-0.099,-0.095,-0.0928,-0.0811,-0.073,-0.0686,-0.0432,-0.0202,0.0045,0.0321,0.043,0.0621,0.0672,0.0608,0.0635,0.0633,0.0621,0.0737,0.0737,0.0736,0.0736,0.0736,0,-0.0973,-0.1009,-0.1049,-0.1089,-0.1092,-0.1109,-0.1118,-0.102,-0.0979,-0.0786,-0.0744,-0.0502,-0.0322,0.0045,0.0295,0.0597,0.0628,0.0716,0.0677,0.0624,0.0646,0.0635,0.0624,0.0735,0.0735,0.0735,0.0735,0,-0.1035,-0.1057,-0.1088,-0.1183,-0.1223,-0.125,-0.1243,-0.1224,-0.1089,-0.0994,-0.0781,-0.055,-0.0289,0.0019,0.026,0.0475,0.0658,0.0713,0.0715,0.0679,0.0623,0.0643,0.0633,0.0734,0.0734,0.0734,0.0734,0,-0.1069,-0.1111,-0.1172,-0.1239,-0.1313,-0.1349,-0.1341,-0.1263,-0.1199,-0.0972,-0.091,-0.0586,-0.038,-0.0044,0.0182,0.0389,0.0425,0.0467,0.0483,0.0487,0.0372,0.0262,0.0294,0,0,0,0,0,-0.1085,-0.1136,-0.1222,-0.1286,-0.1367,-0.1401,-0.1396,-0.136,-0.1239,-0.1114,-0.1003,-0.0753,-0.0367,-0.0168,0.0025,0.0143,0.0436,0.0371,0.0485,0.0727,0.0729,0.0633,0,0,0,0,0,0,-0.1095,-0.1179,-0.1219,-0.1314,-0.1371,-0.1438,-0.144,-0.1368,-0.1268,-0.1124,-0.0912,-0.0744,-0.0366,-0.0488,0.0017,0.0089,0.0177,0.0577,0.058,0.0727,0.0728,0.0729,0.0631,0,0,0,0,0]}]]